KC3QLX Weather Reports


time (UTC)temp
C
wind
direction
speed
KPH
gust
KPH
rain 1hr
cm
rain 24hr
cm
rain mn
cm
humidity
%
barometer
mb
20260510032107 7 194 0.0 0.0 0.00 0.71 0.71 99 1010.9
20260510031602 7 194 0.0 0.0 0.00 0.71 0.71 99 1010.5
20260510031059 7 194 0.0 0.0 0.00 0.71 0.71 99 1010.7
20260510030554 7 194 0.0 0.0 0.00 0.71 0.71 99 1010.7
20260510030052 7 194 0.0 0.0 0.00 0.71 0.71 99 1010.8
20260510025548 7 194 0.0 0.0 0.00 0.71 0.71 99 1010.6
20260510025046 7 194 0.0 0.0 0.00 0.71 0.71 99 1010.6
20260510024542 8 194 0.0 0.0 0.00 0.71 0.71 99 1010.8
20260510024039 8 194 0.0 0.0 0.00 0.71 0.71 99 1010.8
20260510023535 8 194 0.0 0.0 0.00 0.71 0.71 99 1011.0
20260510023033 8 194 0.0 0.0 0.00 0.71 0.71 99 1010.7
20260510022532 8 194 0.0 0.0 0.00 0.71 0.71 99 1010.9
20260510022026 8 194 0.0 0.0 0.00 0.71 0.71 99 1010.8
20260510021523 8 194 0.0 0.0 0.00 0.71 0.71 99 1010.5
20260510021021 8 193 0.0 0.0 0.00 0.71 0.71 99 1010.6
20260510020515 8 194 0.0 0.0 0.00 0.71 0.71 99 1010.7
20260510020011 8 193 0.0 0.0 0.00 0.71 0.71 99 1010.7
20260510015506 8 194 0.0 0.0 0.00 0.71 0.71 99 1010.6
20260510015002 8 194 0.0 0.0 0.00 0.71 0.71 99 1010.4
20260510014459 9 194 0.0 0.0 0.00 0.71 0.71 99 1010.3
20260510013956 9 192 0.0 0.0 0.00 0.71 0.71 99 1010.2
20260510013450 9 193 0.0 0.0 0.00 0.71 0.71 99 1010.6
20260510012947 9 196 0.0 0.0 0.00 0.71 0.71 99 1010.5
20260510012441 9 194 0.0 0.0 0.00 0.71 0.71 99 1010.4
20260510011936 9 194 0.0 0.0 0.00 0.71 0.71 99 1010.4
20260510011432 9 194 0.0 0.0 0.00 0.71 0.71 99 1010.2
20260510010928 10 194 0.0 0.0 0.00 0.71 0.71 99 1010.2
20260510010426 10 194 0.0 0.0 0.00 0.71 0.71 99 1010.2
20260510005922 10 194 0.0 0.0 0.00 0.71 0.71 99 1010.3
20260510005418 10 194 0.0 0.0 0.00 0.71 0.71 99 1010.1
20260510004915 10 194 0.0 0.0 0.00 0.71 0.71 99 1009.9
20260510004413 10 194 0.0 0.0 0.00 0.71 0.71 99 1010.1
20260510003911 10 194 0.0 0.0 0.00 0.71 0.71 99 1010.0
20260510003408 10 194 0.0 0.0 0.00 0.71 0.71 98 1009.7
20260510002907 10 194 0.0 0.0 0.00 0.71 0.71 98 1009.7
20260510002404 11 194 0.0 0.0 0.00 0.71 0.71 98 1009.7
20260510001900 11 194 0.0 0.0 0.00 0.71 0.71 97 1009.7
20260510001358 11 194 0.0 0.0 0.00 0.71 0.71 97 1009.7
20260510000854 11 194 0.0 0.0 0.00 0.71 0.71 96 1009.7
20260510000351 11 194 0.0 0.0 0.00 0.71 0.71 96 1009.4
20260509235848 11 194 0.0 0.0 0.00 0.71 0.71 95 1009.6
20260509235344 12 194 0.0 0.0 0.00 0.71 0.71 95 1009.4
20260509234841 12 194 0.0 0.0 0.00 0.71 0.71 94 1009.2
20260509234338 12 194 0.0 0.0 0.00 0.71 0.71 93 1009.3
20260509233836 12 194 0.0 0.0 0.00 0.71 0.71 92 1009.2
20260509233333 12 194 0.0 0.0 0.00 0.71 0.71 92 1009.4
20260509232829 13 194 0.0 0.0 0.00 0.71 0.71 91 1009.4
20260509232327 13 194 0.0 0.0 0.00 0.71 0.71 90 1009.4
20260509231822 13 194 0.0 0.0 0.00 0.71 0.71 89 1009.4
20260509231319 13 194 0.0 0.0 0.00 0.71 0.71 89 1009.1
20260509230817 14 194 0.0 0.0 0.00 0.71 0.71 88 1009.2
20260509230314 14 194 0.0 0.0 0.00 0.71 0.71 86 1009.2
20260509225809 15 207 1.6 1.6 0.00 0.71 0.71 85 1009.2
20260509225306 15 258 1.6 1.6 0.00 0.71 0.71 84 1009.3
20260509224802 15 279 0.0 0.0 0.00 0.71 0.71 80 1009.5
20260509224259 16 260 0.0 0.0 0.00 0.71 0.71 80 1009.3
20260509223755 15 304 0.0 1.6 0.00 0.71 0.71 82 1009.5
20260509223253 15 245 1.6 1.6 0.00 0.71 0.71 80 1009.3
20260509222749 15 324 0.0 0.0 0.00 0.71 0.71 82 1009.3
20260509222245 16 243 0.0 0.0 0.00 0.71 0.71 81 1009.1
20260509221740 15 233 1.6 1.6 0.00 0.71 0.71 80 1009.3
20260509221237 15 266 1.6 1.6 0.00 0.71 0.71 81 1009.5
20260509220733 15 305 3.2 3.2 0.00 0.71 0.71 83 1009.5
20260509220230 15 271 0.0 0.0 0.00 0.71 0.71 86 1009.5
20260509215725 15 278 3.2 3.2 0.00 0.71 0.71 85 1009.5
20260509215222 15 267 1.6 1.6 0.00 0.71 0.71 88 1009.3
20260509214719 14 267 1.6 1.6 0.00 0.71 0.71 89 1009.4
20260509214216 13 276 1.6 1.6 0.00 0.71 0.71 90 1009.5
20260509213713 13 187 1.6 3.2 0.00 0.71 0.71 89 1009.5
20260509213208 14 54 0.0 0.0 0.00 0.71 0.71 92 1009.4
20260509212706 13 54 0.0 0.0 0.00 0.71 0.71 92 1009.5
20260509212203 14 94 1.6 1.6 0.00 0.71 0.71 90 1009.6
20260509211659 13 166 1.6 1.6 0.00 0.71 0.71 89 1009.7
20260509211155 14 58 0.0 0.0 0.00 0.71 0.71 91 1009.7
20260509210652 13 259 0.0 0.0 0.00 0.71 0.71 92 1009.7
20260509210150 13 272 0.0 0.0 0.00 0.71 0.71 92 1009.6
20260509205645 13 304 0.0 0.0 0.00 0.71 0.71 92 1009.6
20260509205144 13 137 0.0 0.0 0.00 0.71 0.71 92 1009.7
20260509204641 13 336 1.6 1.6 0.00 0.71 0.71 92 1009.6
20260509204137 13 250 0.0 1.6 0.00 0.71 0.71 93 1009.7
20260509203633 13 160 0.0 1.6 0.00 0.71 0.71 93 1009.8
20260509203131 13 287 1.6 3.2 0.00 0.71 0.71 93 1009.9
20260509202626 13 218 0.0 1.6 0.00 0.71 0.71 94 1010.0
20260509202121 13 5 0.0 0.0 0.00 0.71 0.71 94 1010.0
20260509201616 13 206 1.6 1.6 0.00 0.71 0.71 95 1010.1
20260509201114 13 252 1.6 1.6 0.00 0.71 0.71 94 1010.2
20260509200609 13 184 0.0 1.6 0.00 0.71 0.71 94 1010.1
20260509200105 13 304 1.6 3.2 0.00 0.71 0.71 95 1010.3
20260509195601 13 272 3.2 3.2 0.00 0.71 0.71 95 1010.4
20260509195056 13 64 0.0 0.0 0.00 0.71 0.71 95 1010.3
20260509194555 13 162 0.0 1.6 0.00 0.71 0.71 94 1010.6
20260509194053 12 246 1.6 1.6 0.00 0.71 0.71 94 1010.5
20260509193548 12 358 1.6 3.2 0.00 0.71 0.71 94 1010.5
20260509193045 13 314 1.6 1.6 0.00 0.71 0.71 95 1010.4
20260509192542 13 16 0.0 1.6 0.00 0.71 0.71 94 1010.3
20260509192037 13 211 3.2 3.2 0.00 0.71 0.71 95 1010.4
20260509191531 12 321 4.8 4.8 0.00 0.71 0.71 96 1010.3
20260509191027 12 106 0.0 0.0 0.00 0.71 0.71 97 1010.4
20260509190525 12 90 1.6 3.2 0.00 0.71 0.71 97 1010.5
20260509190023 12 229 1.6 1.6 0.00 0.71 0.71 97 1011.0
20260509185520 12 206 0.0 0.0 0.00 0.71 0.71 99 1010.8
20260509185016 12 206 0.0 0.0 0.00 0.71 0.71 99 1010.6
20260509184514 12 205 0.0 1.6 0.00 0.71 0.71 98 1011.2
20260509184010 12 206 0.0 0.0 0.00 0.71 0.71 98 1011.0
20260509183505 11 205 0.0 0.0 0.18 0.71 0.71 98 1011.0
20260509183002 11 206 0.0 0.0 0.18 0.71 0.71 98 1011.3
20260509182458 11 151 0.0 1.6 0.00 0.69 0.69 98 1011.3
20260509181955 11 197 1.6 1.6 0.13 0.69 0.69 98 1011.3
20260509181453 11 148 0.0 0.0 0.13 0.69 0.69 98 1011.2
20260509180950 11 179 0.0 1.6 0.13 0.69 0.69 98 1011.3
20260509180446 11 181 1.6 3.2 0.00 0.66 0.66 99 1011.2
20260509175943 11 346 0.0 0.0 0.00 0.66 0.66 99 1011.1
20260509175439 11 347 0.0 0.0 0.18 0.66 0.66 99 1011.2
20260509174936 11 347 0.0 0.0 0.30 0.66 0.66 99 1011.0
20260509174432 11 346 1.6 1.6 0.13 0.64 0.64 98 1011.4
20260509173927 11 348 0.0 0.0 0.18 0.61 0.61 98 1011.2
20260509173427 11 347 0.0 0.0 0.30 0.61 0.61 98 1011.4
20260509172924 11 347 0.0 0.0 0.30 0.58 0.58 98 1011.1
20260509172421 11 347 0.0 0.0 0.30 0.56 0.56 98 1011.3
20260509171917 11 346 0.0 0.0 0.43 0.53 0.53 98 1011.4
20260509171413 11 347 0.0 0.0 0.30 0.51 0.51 98 1011.2
20260509170909 11 347 0.0 0.0 0.30 0.48 0.48 98 1011.3
20260509170405 11 16 0.0 0.0 0.18 0.43 0.43 98 1011.3
20260509165901 11 17 0.0 0.0 0.30 0.43 0.43 98 1011.5
20260509165355 11 17 0.0 0.0 0.43 0.41 0.41 97 1011.3
20260509164851 11 17 0.0 0.0 0.48 0.38 0.38 97 1011.2
20260509164347 11 18 0.0 0.0 0.48 0.33 0.33 97 1011.6
20260509163843 11 19 1.6 1.6 0.61 0.30 0.30 96 1011.7
20260509163340 12 15 1.6 1.6 0.61 0.25 0.25 95 1011.6
20260509162839 12 14 0.0 0.0 0.43 0.20 0.20 95 1011.9
20260509162332 12 262 0.0 0.0 0.13 0.15 0.15 95 1011.9
20260509161829 12 314 0.0 0.0 0.18 0.13 0.13 94 1011.9
20260509161325 12 208 0.0 0.0 0.36 0.13 0.13 94 1011.8
20260509160821 12 208 0.0 0.0 0.18 0.10 0.10 94 1011.9
20260509160317 12 208 0.0 0.0 0.00 0.08 0.08 93 1011.8
20260509155812 12 210 3.2 4.8 0.13 0.08 0.08 91 1011.9
20260509155309 12 200 0.0 1.6 0.13 0.08 0.08 91 1012.0
20260509154805 12 238 1.6 1.6 0.00 0.05 0.05 90 1011.7
20260509154302 12 171 0.0 1.6 0.18 0.05 0.05 90 1011.7
20260509153759 13 228 3.2 4.8 0.18 0.05 0.05 88 1011.9
20260509153255 13 198 0.0 0.0 0.00 0.03 0.03 88 1012.1
20260509152752 13 197 1.6 3.2 0.00 0.03 0.03 89 1012.0
20260509152248 13 95 0.0 1.6 0.00 0.03 0.03 89 1012.0
20260509151745 13 239 1.6 1.6 0.00 0.03 0.03 90 1012.0
20260509151242 13 238 0.0 0.0 0.00 0.03 0.03 89 1011.8
20260509150740 12 299 0.0 0.0 0.00 0.03 0.03 90 1011.9
20260509150238 12 191 0.0 0.0 0.00 0.03 0.03 93 1012.0
20260509145735 12 120 0.0 0.0 0.00 0.03 0.03 92 1011.9
20260509145234 12 119 0.0 0.0 0.00 0.03 0.03 92 1011.9
20260509144731 12 119 0.0 0.0 0.00 0.03 0.03 92 1011.9
20260509144228 12 120 0.0 0.0 0.00 0.03 0.03 91 1011.7
20260509143725 12 119 0.0 0.0 0.13 0.03 0.03 88 1011.3
20260509143223 13 119 0.0 0.0 0.13 0.03 0.03 84 1011.3
20260509142718 13 118 0.0 0.0 0.00 0.00 0.00 84 1011.5
20260509142215 13 117 0.0 0.0 0.00 0.00 0.00 83 1011.3
20260509141711 12 175 0.0 0.0 0.00 0.00 0.00 84 1011.3
20260509141208 12 178 0.0 0.0 0.00 0.00 0.00 88 1011.3
20260509140704 12 178 0.0 0.0 0.00 0.00 0.00 90 1011.2
20260509140202 12 177 0.0 0.0 0.00 0.00 0.00 91 1011.5
20260509135659 11 178 0.0 0.0 0.00 0.00 0.00 91 1011.3
20260509135157 11 178 0.0 0.0 0.00 0.00 0.00 92 1011.6
20260509134653 11 178 0.0 0.0 0.00 0.00 0.00 93 1011.5
20260509134151 11 177 0.0 0.0 0.00 0.00 0.00 93 1011.4
20260509133648 11 178 0.0 0.0 0.00 0.00 0.00 93 1011.6
20260509133145 11 177 0.0 0.0 0.00 0.00 0.00 93 1011.7
20260509132643 11 177 0.0 0.0 0.00 0.00 0.00 93 1011.6
20260509132142 11 176 0.0 0.0 0.00 0.00 0.00 94 1011.6
20260509131637 11 176 0.0 0.0 0.00 0.00 0.00 93 1011.6
20260509131135 11 176 0.0 0.0 0.00 0.00 0.00 93 1011.2
20260509130630 11 175 0.0 0.0 0.00 0.00 0.00 93 1011.2
20260509130127 11 176 0.0 0.0 0.00 0.00 0.00 94 1011.1
20260509125623 11 176 0.0 0.0 0.00 0.00 0.00 94 1011.0
20260509125120 11 176 0.0 0.0 0.00 0.00 0.00 94 1011.2
20260509124616 11 175 0.0 0.0 0.00 0.00 0.00 94 1011.2
20260509124114 10 176 0.0 0.0 0.00 0.00 0.00 93 1011.2
20260509123612 10 176 0.0 0.0 0.00 0.00 0.00 92 1011.3
20260509123108 10 174 0.0 0.0 0.00 0.00 0.00 92 1011.3
20260509122604 10 139 0.0 0.0 0.00 0.00 0.00 93 1011.2
20260509122102 10 173 0.0 0.0 0.00 0.00 0.00 92 1011.5
20260509121558 10 163 0.0 0.0 0.00 0.00 0.00 92 1011.4
20260509121056 10 163 0.0 0.0 0.00 0.00 0.00 92 1011.2
20260509120554 10 163 0.0 0.0 0.00 0.00 0.00 92 1011.6
20260509120052 10 172 0.0 0.0 0.00 0.00 0.00 92 1011.7
20260509115548 10 172 0.0 0.0 0.00 0.00 0.00 92 1011.8
20260509115046 10 172 0.0 0.0 0.00 0.00 0.00 93 1011.5
20260509114544 10 167 0.0 0.0 0.00 0.00 0.00 93 1011.3
20260509114043 10 169 0.0 0.0 0.00 0.00 0.00 92 1011.3
20260509113541 10 164 0.0 0.0 0.00 0.00 0.00 92 1011.3
20260509113038 10 164 0.0 0.0 0.00 0.00 0.00 92 1011.4
20260509112534 10 221 0.0 0.0 0.00 0.00 0.00 93 1011.4
20260509112031 9 223 0.0 0.0 0.00 0.00 0.00 94 1011.6
20260509111529 9 223 0.0 0.0 0.00 0.00 0.00 95 1010.9
20260509111026 9 224 0.0 0.0 0.00 0.00 0.00 95 1010.8
20260509110522 9 224 0.0 0.0 0.00 0.00 0.00 95 1011.1
20260509110020 9 224 0.0 0.0 0.00 0.00 0.00 96 1010.9
20260509105518 9 226 0.0 0.0 0.00 0.00 0.00 96 1011.0
20260509105015 8 226 0.0 0.0 0.00 0.00 0.00 96 1010.9
20260509104512 8 226 0.0 0.0 0.00 0.00 0.00 96 1011.1
20260509104009 8 226 0.0 0.0 0.00 0.00 0.00 96 1011.1
20260509103507 8 226 0.0 0.0 0.00 0.00 0.00 96 1011.2
20260509103005 8 225 0.0 1.6 0.00 0.00 0.00 96 1011.3
20260509102502 8 200 0.0 0.0 0.00 0.00 0.00 97 1011.0
20260509101958 8 231 0.0 0.0 0.00 0.00 0.00 97 1010.9
20260509101454 8 224 0.0 0.0 0.00 0.00 0.00 97 1010.9
20260509100951 8 246 0.0 0.0 0.00 0.00 0.00 97 1011.2
20260509100449 8 204 1.6 1.6 0.00 0.00 0.00 98 1010.8
20260509095945 8 200 0.0 0.0 0.00 0.00 0.00 98 1010.4
20260509095442 8 200 0.0 0.0 0.00 0.00 0.00 98 1010.7
20260509094939 8 200 0.0 0.0 0.00 0.00 0.00 98 1010.8
20260509094436 8 200 0.0 0.0 0.00 0.00 0.00 98 1011.1
20260509093933 8 201 0.0 0.0 0.00 0.00 0.00 97 1011.1
20260509093431 8 201 0.0 0.0 0.00 0.00 0.00 97 1010.9
20260509092929 8 200 0.0 0.0 0.00 0.00 0.00 97 1011.1
20260509092426 8 201 0.0 0.0 0.00 0.00 0.00 97 1011.1
20260509091925 7 200 0.0 0.0 0.00 0.00 0.00 97 1011.1
20260509091421 8 200 0.0 0.0 0.00 0.00 0.00 98 1011.1
20260509090918 7 201 0.0 0.0 0.00 0.00 0.00 98 1011.4
20260509090416 7 200 0.0 0.0 0.00 0.00 0.00 98 1011.3
20260509085913 7 200 0.0 0.0 0.00 0.00 0.00 98 1011.3
20260509085410 7 201 0.0 0.0 0.00 0.00 0.00 98 1011.4
20260509084906 7 201 0.0 0.0 0.00 0.00 0.00 98 1011.4
20260509084403 7 201 0.0 0.0 0.00 0.00 0.00 98 1011.3
20260509083901 7 201 0.0 0.0 0.00 0.00 0.00 98 1011.4
20260509083358 7 201 0.0 0.0 0.00 0.00 0.00 98 1011.4
20260509082854 7 201 0.0 0.0 0.00 0.00 0.00 98 1011.6
20260509082351 7 201 0.0 0.0 0.00 0.00 0.00 98 1011.6
20260509081848 7 201 0.0 0.0 0.00 0.00 0.00 98 1011.6
20260509081346 7 201 0.0 0.0 0.00 0.00 0.00 98 1011.6
20260509080843 7 201 0.0 0.0 0.00 0.00 0.00 98 1011.8
20260509080341 7 201 0.0 0.0 0.00 0.00 0.00 98 1011.9
20260509075839 7 201 0.0 0.0 0.00 0.00 0.00 98 1011.9
20260509075336 7 201 0.0 0.0 0.00 0.00 0.00 97 1011.7
20260509074833 7 201 0.0 0.0 0.00 0.00 0.00 97 1011.7
20260509074331 7 201 0.0 0.0 0.00 0.00 0.00 97 1011.8
20260509073827 7 201 0.0 0.0 0.00 0.00 0.00 96 1011.8
20260509073323 7 201 0.0 0.0 0.00 0.00 0.00 96 1011.9
20260509072820 7 201 0.0 0.0 0.00 0.00 0.00 96 1011.8
20260509072316 7 201 0.0 0.0 0.00 0.00 0.00 95 1011.7
20260509071813 8 201 0.0 0.0 0.00 0.00 0.00 95 1011.9
20260509071310 8 201 0.0 0.0 0.00 0.00 0.00 95 1011.7
20260509070807 8 201 0.0 0.0 0.00 0.00 0.00 94 1011.8
20260509070304 8 201 0.0 0.0 0.00 0.00 0.00 94 1011.6
20260509065800 8 201 0.0 0.0 0.00 0.00 0.00 94 1011.8
20260509065256 8 201 0.0 0.0 0.00 0.00 0.00 93 1011.6
20260509064753 8 201 0.0 0.0 0.00 0.00 0.00 93 1011.7
20260509064250 9 202 0.0 0.0 0.00 0.00 0.00 93 1011.9
20260509063748 9 202 0.0 0.0 0.00 0.00 0.00 93 1011.9
20260509063244 9 202 0.0 0.0 0.00 0.00 0.00 93 1012.1
20260509062741 9 202 0.0 0.0 0.00 0.00 0.00 93 1011.9
20260509062238 9 202 0.0 0.0 0.00 0.00 0.00 93 1012.3
20260509061735 10 202 0.0 0.0 0.00 0.00 0.00 93 1012.1
20260509061233 10 201 0.0 0.0 0.00 0.00 0.00 93 1012.2
20260509060730 9 202 0.0 0.0 0.00 0.00 0.00 93 1012.3
20260509060226 10 202 0.0 0.0 0.00 0.00 0.00 93 1012.2
20260509055722 10 202 0.0 0.0 0.00 0.00 0.00 92 1012.0
20260509055218 10 202 0.0 0.0 0.00 0.00 0.00 92 1012.1
20260509054715 10 202 0.0 0.0 0.00 0.00 0.00 92 1011.9
20260509054212 10 202 0.0 0.0 0.00 0.00 0.00 91 1011.9
20260509053711 10 202 0.0 0.0 0.00 0.00 0.00 91 1011.9
20260509053207 10 202 0.0 0.0 0.00 0.00 0.00 90 1011.9
20260509052705 10 202 0.0 0.0 0.00 0.00 0.00 91 1012.1
20260509052202 10 202 0.0 0.0 0.00 0.00 0.00 91 1012.1
20260509051700 10 202 0.0 0.0 0.00 0.00 0.00 91 1012.4
20260509051157 10 202 0.0 0.0 0.00 0.00 0.00 93 1012.4
20260509050654 10 202 0.0 0.0 0.00 0.00 0.00 93 1012.1
20260509050150 10 202 0.0 0.0 0.00 0.00 0.00 93 1012.2
20260509045648 10 203 0.0 0.0 0.00 0.00 0.00 92 1012.2
20260509045145 10 203 0.0 0.0 0.00 0.00 0.00 92 1012.8
20260509044642 10 203 0.0 0.0 0.00 0.00 0.00 91 1012.9
20260509044139 10 203 0.0 0.0 0.00 0.00 0.00 91 1012.8
20260509043636 10 203 0.0 0.0 0.00 0.00 0.00 91 1012.6
20260509043131 10 203 0.0 0.0 0.00 0.00 0.00 91 1012.6
20260509042628 10 203 0.0 0.0 0.00 0.00 0.00 91 1012.4
20260509042124 10 203 0.0 0.0 0.00 0.00 0.00 91 1012.3
20260509041621 10 203 0.0 0.0 0.00 0.00 0.00 91 1012.5
20260509041118 10 202 0.0 0.0 0.00 0.00 0.00 90 1012.5
20260509040617 10 203 0.0 0.0 0.00 0.00 0.00 90 1012.4
20260509040114 10 202 0.0 0.0 0.00 0.00 0.00 90 1012.7
20260509035610 10 202 0.0 0.0 0.00 0.00 0.00 90 1012.7
20260509035107 9 202 0.0 0.0 0.00 0.00 0.00 90 1012.5
20260509034605 9 203 0.0 0.0 0.00 0.00 0.00 90 1012.4
20260509034101 9 203 0.0 1.6 0.00 0.00 0.00 90 1012.3
20260509033558 9 203 0.0 0.0 0.00 0.00 0.00 89 1012.2
20260509033055 10 203 0.0 0.0 0.00 0.00 0.00 89 1012.2
20260509032553 10 203 0.0 0.0 0.00 0.00 0.00 89 1012.6